This is the latest recevied weather packets stored in our database for station/object N3WGC-14. If no packets are shown the sender has not sent any weather packets the latest 10 day(s).
| Time | Temp. | Humidity | Pressure | Rain* | Wind** | Luminosity | Snow |
|---|---|---|---|---|---|---|---|
| 1777341087 | 12.78° C | 63% | 1024.9 hPa | 0 mm | - | - | - |
| 1777340787 | 13.33° C | 63% | 1024.8 hPa | 0 mm | - | - | - |
| 1777340487 | 13.33° C | 62% | 1024.8 hPa | 0 mm | - | - | - |
| 1777340187 | 13.33° C | 62% | 1024.7 hPa | 0 mm | - | - | - |
| 1777339886 | 13.33° C | 62% | 1024.7 hPa | 0 mm | - | - | - |
| 1777339586 | 13.33° C | 62% | 1024.6 hPa | 0 mm | - | - | - |
| 1777339286 | 13.33° C | 61% | 1024.7 hPa | 0 mm | - | - | - |
| 1777338986 | 13.33° C | 62% | 1024.6 hPa | 0 mm | - | - | - |
| 1777338686 | 13.33° C | 62% | 1024.6 hPa | 0 mm | - | - | - |
| 1777338386 | 13.89° C | 63% | 1024.5 hPa | 0 mm | - | - | - |
| 1777338086 | 13.89° C | 64% | 1024.4 hPa | 0 mm | - | - | - |
| 1777337785 | 13.89° C | 63% | 1024.4 hPa | 0 mm | - | - | - |
| 1777337485 | 13.89° C | 64% | 1024.4 hPa | 0 mm | - | - | - |
| 1777337185 | 13.89° C | 65% | 1024.3 hPa | 0 mm | - | - | - |
| 1777336855 | 14.44° C | 67% | 1024.2 hPa | 0 mm | - | - | - |
| 1777336555 | 14.44° C | 69% | 1024.1 hPa | 0 mm | - | - | - |
| 1777336255 | 13.89° C | 72% | 1024.1 hPa | 0 mm | - | - | - |
| 1777335954 | 13.89° C | 75% | 1024.1 hPa | 0 mm | - | - | - |
| 1777335654 | 13.89° C | 81% | 1024.1 hPa | 0 mm | - | - | - |
| 1777335354 | 13.89° C | 82% | 1023.9 hPa | 0 mm | - | - | - |
| 1777335054 | 14.44° C | 82% | 1023.9 hPa | 0 mm | - | - | - |
| 1777334754 | 14.44° C | 80% | 1023.9 hPa | 0 mm | - | - | - |
| 1777334454 | 15° C | 79% | 1023.7 hPa | 0 mm | - | - | - |
| 1777334153 | 15° C | 78% | 1023.6 hPa | 0 mm | - | - | - |
| 1777333853 | 15.56° C | 77% | 1023.5 hPa | 0 mm | - | - | - |
* Rain latest hour (hover to see other rain measurements)
** Current wind speed in m/s (hover to see current wind gust speed)